TimeEDT,TemperatureF,Dew PointF,Humidity,Sea Level PressureIn,VisibilityMPH,Wind Direction,Wind SpeedMPH,Gust SpeedMPH,PrecipitationIn,Events,Conditions,WindDirDegrees,DateUTC
12:54 AM,57.9,50.0,75,29.89,10.0,SW,4.6,-,N/A,,Clear,220,2012-10-02 04:54:00
1:54 AM,54.0,50.0,86,29.90,10.0,SE,4.6,-,N/A,,Clear,130,2012-10-02 05:54:00
2:54 AM,52.0,50.0,93,29.90,10.0,ESE,4.6,-,N/A,,Clear,120,2012-10-02 06:54:00
3:54 AM,51.1,50.0,96,29.91,10.0,Calm,Calm,-,N/A,,Clear,0,2012-10-02 07:54:00
4:54 AM,50.0,48.9,96,29.93,10.0,Calm,Calm,-,0.00,,Clear,0,2012-10-02 08:54:00
5:54 AM,48.9,48.0,97,29.95,10.0,Calm,Calm,-,N/A,,Clear,0,2012-10-02 09:54:00
7:54 AM,54.0,52.0,93,29.99,10.0,Calm,Calm,-,N/A,,Clear,0,2012-10-02 11:54:00
8:54 AM,57.9,53.1,84,30.01,10.0,Calm,Calm,-,0.00,,Clear,0,2012-10-02 12:54:00
9:54 AM,61.0,54.0,78,30.01,10.0,Calm,Calm,-,0.00,,Clear,0,2012-10-02 13:54:00
10:54 AM,66.9,55.0,66,30.01,10.0,Calm,Calm,-,0.00,,Clear,0,2012-10-02 14:54:00
11:54 AM,69.1,55.0,61,30.00,10.0,Calm,Calm,-,0.00,,Clear,0,2012-10-02 15:54:00
12:54 PM,70.0,55.0,59,29.99,10.0,Calm,Calm,-,N/A,,Clear,0,2012-10-02 16:54:00
1:54 PM,71.1,54.0,55,29.98,10.0,WSW,3.5,-,0.00,,Scattered Clouds,250,2012-10-02 17:54:00
2:54 PM,69.1,55.0,61,30.00,10.0,Variable,5.8,-,0.00,,Mostly Cloudy,0,2012-10-02 18:54:00
3:54 PM,68.0,57.0,68,29.99,10.0,Variable,4.6,-,N/A,,Overcast,0,2012-10-02 19:54:00
4:54 PM,66.9,55.0,66,29.98,10.0,Calm,Calm,-,N/A,,Clear,0,2012-10-02 20:54:00
5:54 PM,64.9,54.0,68,30.01,10.0,SW,6.9,-,0.00,,Overcast,230,2012-10-02 21:54:00
6:54 PM,64.0,55.9,75,30.01,10.0,Calm,Calm,-,N/A,,Overcast,0,2012-10-02 22:54:00
9:54 PM,61.0,55.9,83,30.05,10.0,Calm,Calm,-,N/A,,Overcast,0,2012-10-03 01:54:00
10:54 PM,61.0,55.9,83,30.06,10.0,Calm,Calm,-,N/A,,Overcast,0,2012-10-03 02:54:00
11:54 PM,60.1,55.9,86,30.06,10.0,Calm,Calm,-,N/A,,Overcast,0,2012-10-03 03:54:00